Regional Weather Roundup
Issued by NWS Green Bay, WI

Home | Current Version | Previous Version | Text Only | Print | Product List | Glossary On
Versions: 1 2 3 4 5 6 7 8 9 10 11 12 13 14 15 16 17 18 19 20 21 22 23 24 25 26 27 28 29 30 31 32 33 34 35 36 37 38 39 40 41 42 43 44 45 46 47 48 49 50
000
ASUS43 KGRB 230001
RWRGRB

NORTH-CENTRAL AND NORTHEAST WISCONSIN REGIONAL WEATHER ROUNDUP
NATIONAL WEATHER SERVICE GREEN BAY WI
700 PM CDT SUN OCT 22 2017

WIZ005-009-010>012-018-019-230100-
NORTH CENTRAL WISCONSIN

CITY           SKY/WX    TMP DP  RH WIND       PRES   REMARKS
IRONWOOD       PTCLDY    49  38  65 S8        29.93R
MANITOWISH WTR NOT AVBL
ARBOR VITAE    NOT AVBL
EAGLE RIVER    NOT AVBL
LAND O LAKES   NOT AVBL
RHINELANDER    CLOUDY    46  42  86 SW6       29.99R
PHILLIPS       NOT AVBL
ANTIGO         NOT AVBL
TOMAHAWK       NOT AVBL
MERRILL        NOT AVBL
$$

WIZ013-073-230100-
NORTHEAST WISCONSIN

CITY           SKY/WX    TMP DP  RH WIND       PRES   REMARKS
IRON MOUNTAIN  CLOUDY    48  45  89 S6        29.98R
MARINETTE      LGT RAIN  50  48  93 W3        30.02R
$$

WIZ017-030-035>037-045-230100-
CENTRAL WISCONSIN

CITY           SKY/WX    TMP DP  RH WIND       PRES   REMARKS
MEDFORD        NOT AVBL
WAUSAU         CLOUDY    48  43  82 SW6       30.00R
MOSINEE        MOCLDY    46  45  93 SW7       30.02R
MARSHFIELD     CLOUDY    47  42  83 S6        30.00R
WISC RAPIDS    CLOUDY    49  47  93 S5        30.03R
STEVENS POINT  NOT AVBL
WAUPACA        NOT AVBL
SHAWANO        NOT AVBL
CLINTONVILLE   NOT AVBL
WAUTOMA        CLOUDY   N/A N/A N/A S5        30.05R
$$

WIZ038-039-048-051-230100-
FOX VALLEY

CITY           SKY/WX    TMP DP  RH WIND       PRES   REMARKS
NWS GREEN BAY  LGT RAIN  50  50 100 S3        30.03R
APPLETON       DRIZZLE   48  48 100 CALM      30.02R
OSHKOSH        CLOUDY    50  48  93 CALM      30.04R
FOND DU LAC    CLOUDY    51  47  86 W3        30.05R
$$

WIZ022-050-052-230100-
EAST CENTRAL WISCONSIN

CITY           SKY/WX    TMP DP  RH WIND       PRES   REMARKS
EPHRAIM        NOT AVBL
WASHINGTON ISL NOT AVBL
STURGEON BAY   LGT RAIN  51  50  96 SW5       30.02R
MANITOWOC      LGT RAIN  51  50  96 W5        30.05R
SHEBOYGAN      LGT RAIN  50  50 100 CALM      30.04R
$$

LMZ563-521-522-541>543-230100-
LAKESHORE

STATION/POSITION TIME  TEMP    WIND        PRES    VSBY  WAVE
                       AIR SEA DIR/SP/G                  HT/PER
                 (UTC) (F)     (DEG/KT/KT) (MB)    (MI)  (FT/S)
SHEBOYGAN LKSHOR 2300   51      CALM  /  1 1016.6R
KEWAUNEE LKSHORE 2330   50     180/  5/  7 1015.6R
NORTHPORT PIER   2340   51     190/  2/  3 1015.9R
N MID LAKE BUOY  2250   52 57  280/  6/  8 1016.0R         4/ 7
S GREEN BAY BUOY 2330   51 58  260/  8/ 10 1015.8R
SISTER BAY LKSHO 2319   51     190/  6/  8   N/A
MENOMINEE LKSHOR 2330   51     240/  5/  7 1015.6R
$$




USA.gov is the U.S. government's official web portal to all federal, state and local government web resources and services.